星链-35563(STARLINK-35563)

导读 | 豆包AI

STARLINK-35563是美国(US)于2025年10月19日发射的星链(Starlink)卫星,星链项目是太空探索技术公司(SpaceX)打造的低轨卫星互联网星座,这类卫星主要用于为全球提供覆盖广泛、低延迟的互联网接入服务,填补地面网络覆盖盲区,推动全球互联基础设施建设。

基本信息
目录编号:
66087
目录名称:
STARLINK-35563
国际标识:
2025-236B
轨道中心:
EARTH
卫星名称:
星链-35563
卫星全名:
星链-35563(STARLINK-35563)
卫星状态:
在轨 (已飞行218 天)
发射日期:
2025-10-19 UTC
国别 :
美国 (US)
星等 :
--
轨道信息
数据来源 国际轨道数据 AOE轨道数据
星历时间 2026-05-25T11:55:17+0800
6小时前
查看轨道信息
2026-05-18T23:00:00+0800
6天前
查看轨道信息
半长轴 6853.351km 6853.367km
偏心率 0.0001462 0.0001079
轨道倾角 53.159° 53.157°
近地点辐角 87.219° 70.749°
升交点赤经 108.618° 138.989°
平近点角 272.898° 251.237°
近地点 474.212km 474.49km
远地点 476.216km 475.97km
周期 94.105分钟 94.106分钟
每日圈数 15.302006 15.301952
详细信息
固有亮度:
5
最大亮度:
2.5
卫星平台:
Starlink V1.0
覆盖范围:
全球
运营商:
太空探索技术公司
运营商所在国:
美国
制造商(研发单位):
太空探索技术公司
制造商所在国:
美国
使用方式:
暂无
卫星简介
Starlink 计划是 SpaceX 推出的全球卫星互联网项目,通过发射低轨道卫星,为全球尤其是偏远地区提供高速、低延迟的互联网服务。自 2019 年起,Starlink 已部署数千颗卫星,旨在缩小全球数字鸿沟,推动互联网普及。该项目还为军事、航空等行业提供通信支持,带来广泛经济效益。
2D轨道图
3D轨道图
轨道高度分析图
轨道倾角分析图
轨道综合分析图
查看轨道综合分析图